Location: Banff
(51.1667°N, 115.5667°W)
Time: 15:07:14
(UTC+00:00)

Tiros 1 - Pass Details

Date: 04 August 2021
Orbit: 630 x 663 km, 48.4° (Epoch: 23 September)

Event Time Altitude Azimuth Distance (km) Brightness Sun altitude
Rises 06:27:11 0° 279° (W) 2,969 11.0 -19.4°
Reaches altitude 10° 06:29:58 10° 264° (W) 2,049 9.9 -19.5°
Enters shadow 06:33:06 22° 223° (SW) 1,424 8.6 -19.7°
